Home > Weather > Youngstown > Past weeks

Flag for USA Past Weather in Youngstown, Ohio, USA — Yesterday and Last 2 Weeks

Now
75 °F

Scattered clouds.


Feels Like: 76 °F
Forecast: 66 / 91 °F
Wind: 3 mph from Southeast

Location: Youngstown-Warren Regional Airport

Current Time: Jun 25, 2016 at 9:09:45 PM

Latest Report: Jun 25, 2016 at 8:51 PM


Visibility: 10 mi

Pressure: 30.10 "Hg

Humidity: 74%

Dew Point: 66 °F

Location of YoungstownLocation

Past Weather in Youngstown — Graph

°F

Youngstown Temperature Yesterday

Maximum temperature yesterday: 81 °F (at 2:51 PM)
Minimum temperature yesterday: 61 °F (at 5:51 AM)
Average temperature yesterday: 70 °F

High & Low Weather Summary for the Past Weeks

 TemperatureHumidityPressure
High88 °F (Jun 11, 3:51 PM)97% (Jun 17, 4:51 AM)30.34 "Hg (Jun 17, 4:51 AM)
Low48 °F (Jun 13, 5:51 AM)29% (Jun 21, 5:51 PM)29.65 "Hg (Jun 16, 2:51 PM)
Average70 °F64%29.99 "Hg
* Reported Jun 10 7:51 PM — Jun 25 7:51 PM, Youngstown, Weather by CustomWeather, © 2016

Note: Actual official high and low records may vary slightly from our data, if they occured in-between our weather recording intervals... More about our weather records

Advertising

Youngstown Weather History for the Previous 24 Hours

Scroll right to see more
 ConditionsComfort  
Time TempWeatherWind HumidityBarometerVisibility
7:51 PM
Sat, Jun 25
78 °FPassing clouds.3 mph66%30.10 "Hg10 mi
6:51 PM80 °FScattered clouds.3 mph62%30.11 "Hg10 mi
5:51 PM83 °FScattered clouds.No wind50%30.12 "Hg10 mi
4:51 PM85 °FScattered clouds.6 mph43%30.12 "Hg10 mi
3:51 PM85 °FPassing clouds.5 mph45%30.14 "Hg10 mi
2:51 PM84 °FScattered clouds.5 mph45%30.14 "Hg10 mi
1:51 PM83 °FScattered clouds.5 mph46%30.13 "Hg10 mi
12:51 PM80 °FScattered clouds.No wind49%30.15 "Hg10 mi
11:51 AM81 °FScattered clouds.5 mph51%30.16 "Hg10 mi
10:51 AM78 °FPassing clouds.3 mph60%30.16 "Hg10 mi
9:51 AM75 °FSunny.No wind66%30.16 "Hg10 mi
8:51 AM71 °FSunny.5 mph71%30.16 "Hg10 mi
7:51 AM66 °FPassing clouds.6 mph75%30.14 "Hg10 mi
6:51 AM59 °FScattered clouds.6 mph87%30.14 "Hg10 mi
5:51 AM55 °FPassing clouds.3 mph90%30.12 "Hg10 mi
4:51 AM57 °FPassing clouds.5 mph81%30.10 "Hg10 mi
3:51 AM57 °FPassing clouds.6 mph81%30.10 "Hg10 mi
2:51 AM59 °FPassing clouds.3 mph81%30.10 "Hg10 mi
1:51 AM60 °FPassing clouds.3 mph78%30.10 "Hg10 mi
12:51 AM65 °FPassing clouds.6 mph61%30.09 "Hg10 mi
11:51 PM
Fri, Jun 24
67 °FPassing clouds.7 mph57%30.08 "Hg10 mi
10:51 PM68 °FPassing clouds.6 mph55%30.09 "Hg10 mi
9:51 PM69 °FPassing clouds.6 mph53%30.08 "Hg10 mi
Weather by CustomWeather, © 2016

See weather overviewHow to use our weather pages